Location: Oshawa
(43.9000°N, 78.8670°W)
Time: 12:53:49
(UTC-04:00)

CARTOSAT-1 - Visible Passes

Search period start: 26 March 2017 00:00
Search period end: 05 April 2017 00:00
Orbit: 617 x 619 km, 97.9° (Epoch: 24 March)

Date Brightness Start Highest point End Pass type
(mag) Time Alt. Az. Time Alt. Az. Time Alt. Az.
26 Mar 6.1 21:52:04 10° NNE 21:52:04 10° NNE 21:52:10 10° NNE visible
26 Mar 6.4 23:29:11 15° NNW 23:29:11 15° NNW 23:29:56 10° NNW visible
27 Mar 5.9 22:08:55 13° NNE 22:08:55 13° NNE 22:09:43 10° NNE visible
27 Mar 6.6 23:46:02 13° NNW 23:46:02 13° NNW 23:46:34 10° NNW visible
28 Mar 5.8 22:25:47 16° NNE 22:25:47 16° NNE 22:26:56 10° N visible
29 Mar 6.7 00:02:54 11° NW 00:02:54 11° NW 00:03:04 10° NW visible
29 Mar 5.8 22:42:37 19° N 22:42:37 19° N 22:43:59 10° N visible
30 Mar 5.8 22:59:29 20° N 22:59:29 20° N 23:00:55 10° N visible
31 Mar 5.9 23:16:21 20° NNW 23:16:21 20° NNW 23:17:44 10° NNW visible
01 Apr 5.9 21:56:04 13° NE 21:56:04 13° NE 21:57:00 10° NNE visible
01 Apr 6.1 23:33:11 19° NNW 23:33:11 19° NNW 23:34:28 10° NNW visible
02 Apr 5.7 22:12:56 17° NNE 22:12:56 17° NNE 22:14:25 10° NNE visible
02 Apr 6.3 23:50:03 16° NW 23:50:03 16° NW 23:51:04 10° NNW visible
03 Apr 5.5 22:29:47 21° NNE 22:29:47 21° NNE 22:31:35 10° N visible
04 Apr 6.5 00:06:55 13° NW 00:06:55 13° NW 00:07:31 10° NW visible
04 Apr 5.4 22:46:38 24° NNE 22:46:38 24° NNE 22:48:36 10° N visible
